Weather History for KKLS - January, 2012

Change the Weather History Date:

Thursday, January 26, 2012

  Actual Average (KSPB) Record (KSPB)
Temperature  
Mean Temperature 42 °F -  
Max Temperature 48 °F - - ()
Min Temperature 35 °F - - ()
Degree Days  
Heating Degree Days 24    
Month to date heating degree days  
Since 1 July heating degree days  
Cooling Degree Days 0    
Month to date cooling degree days  
Year to date cooling degree days  
Moisture  
Dew Point 37 °F    
Average Humidity 79    
Maximum Humidity 93    
Minimum Humidity 66    
Precipitation  
Precipitation 0.12 in - - ()
Month to date precipitation  
Year to date precipitation  
Sea Level Pressure  
Sea Level Pressure 30.32 in    
Wind  
Wind Speed 6 mph (NNW)    
Max Wind Speed 15 mph    
Max Gust Speed 22 mph    
Visibility 10 miles    
Events      
T = Trace of Precipitation, MM = Missing Value Source: NWS Daily Summary

Daily Weather History Graph

Daily Weather History Graph

Search for Another Location

Airport or City:

Trip Planner

Search our weather history database for the weather conditions in past years. The results will help you decide how hot, cold, wet, or windy it might be!

Date:

Astronomy

Jan. 26, 2012 Rise Set
Actual Time 7:41 AM PST 5:07 PM PST
Civil Twilight 7:08 AM PST 5:39 PM PST
Nautical Twilight 6:32 AM PST 6:16 PM PST
Astronomical Twilight 5:57 AM PST 6:51 PM PST
Moon 8:56 AM PST (1/26) 9:22 PM PST (1/26)
Length of Visible Light 10h 31m
Length of Day
9h 26m
Waxing Crescent, 13% of the Moon is Illuminated
Jan 26
Waxing Crescent
Jan 30
First Quarter
Feb 7
Full
Feb 14
Last Quarter
Feb 21
New

Hourly Weather History & Observations

Time (PST) Temp. Windchill Dew Point Humidity Pressure Visibility Wind Dir Wind Speed Gust Speed Precip Events Conditions
12:15 AM 48.2 °F - 42.8 °F 82% 30.08 in 10.0 mi SE 10.4 mph - N/A   Overcast
12:35 AM 48.2 °F - 42.8 °F 82% 30.07 in 10.0 mi SE 11.5 mph - N/A   Overcast
12:55 AM 48.2 °F - 42.8 °F 82% 30.06 in 10.0 mi SE 9.2 mph - N/A   Overcast
1:15 AM 48.2 °F - 42.8 °F 82% 30.05 in 10.0 mi SE 10.4 mph - N/A   Overcast
1:35 AM 48.2 °F - 44.6 °F 87% 30.05 in 10.0 mi SSE 6.9 mph - N/A   Overcast
1:55 AM 48.2 °F - 44.6 °F 87% 30.04 in 5.0 mi SE 10.4 mph - N/A   Overcast
2:15 AM 48.2 °F - 44.6 °F 87% 30.04 in 8.0 mi SSE 12.7 mph 16.1 mph 0.02 in   Overcast
2:35 AM 48.2 °F - 44.6 °F 87% 30.10 in 5.0 mi West 10.4 mph 17.3 mph 0.07 in   Mostly Cloudy
2:55 AM 46.4 °F 40.1 °F 42.8 °F 87% 30.12 in 8.0 mi WNW 15.0 mph 21.9 mph 0.09 in   Mostly Cloudy
3:15 AM 44.6 °F 43.1 °F 39.2 °F 81% 30.13 in 10.0 mi WNW 3.5 mph - 0.01 in   Overcast
3:35 AM 44.6 °F - 39.2 °F 81% 30.14 in 10.0 mi Calm Calm - 0.02 in   Overcast
3:55 AM 42.8 °F 41.1 °F 39.2 °F 87% 30.14 in 10.0 mi NE 3.5 mph - 0.02 in   Overcast
4:15 AM 42.8 °F 40.1 °F 39.2 °F 87% 30.15 in 9.0 mi NW 4.6 mph - N/A   Overcast
4:35 AM 44.6 °F 40.2 °F 37.4 °F 76% 30.16 in 10.0 mi NW 8.1 mph - N/A   Mostly Cloudy
4:55 AM 42.8 °F 39.3 °F 37.4 °F 81% 30.17 in 10.0 mi NW 5.8 mph - N/A   Overcast
5:15 AM 42.8 °F 39.3 °F 35.6 °F 76% 30.19 in 10.0 mi NW 5.8 mph - N/A   Overcast
5:35 AM 42.8 °F 39.3 °F 35.6 °F 76% 30.20 in 10.0 mi NNW 5.8 mph - N/A   Mostly Cloudy
5:55 AM 42.8 °F 39.3 °F 35.6 °F 76% 30.21 in 10.0 mi NNW 5.8 mph - N/A   Overcast
6:15 AM 42.8 °F 39.3 °F 35.6 °F 76% 30.23 in 10.0 mi NNE 5.8 mph - N/A   Overcast
6:35 AM 42.8 °F 40.1 °F 35.6 °F 76% 30.25 in 10.0 mi NNE 4.6 mph - N/A   Overcast
6:55 AM 42.8 °F 40.1 °F 35.6 °F 76% 30.27 in 10.0 mi NNE 4.6 mph - N/A   Mostly Cloudy
7:15 AM 42.8 °F - 33.8 °F 70% 30.28 in 10.0 mi Calm Calm - N/A   Overcast
7:35 AM 39.2 °F - 33.8 °F 81% 30.30 in 10.0 mi Calm Calm - N/A   Mostly Cloudy
7:55 AM 39.2 °F - 35.6 °F 87% 30.30 in 10.0 mi Calm Calm - N/A   Scattered Clouds
8:15 AM 39.2 °F 35.9 °F 35.6 °F 87% 30.33 in 10.0 mi SE 4.6 mph - N/A   Mostly Cloudy
8:35 AM 41.0 °F - 35.6 °F 81% 30.34 in 10.0 mi Calm Calm - N/A   Mostly Cloudy
8:55 AM 41.0 °F 38.0 °F 37.4 °F 87% 30.35 in 10.0 mi SSE 4.6 mph - N/A   Overcast
9:15 AM 41.0 °F 37.1 °F 37.4 °F 87% 30.36 in 10.0 mi SE 5.8 mph - N/A   Overcast
9:35 AM 42.8 °F - 35.6 °F 76% 30.38 in 10.0 mi Calm Calm - N/A   Overcast
9:55 AM 42.8 °F 41.1 °F 35.6 °F 76% 30.39 in 10.0 mi ESE 3.5 mph - N/A   Overcast
10:15 AM 42.8 °F - 35.6 °F 76% 30.40 in 10.0 mi Calm Calm - N/A   Overcast
10:35 AM 42.8 °F - 35.6 °F 76% 30.41 in 10.0 mi Calm Calm - N/A   Overcast
10:55 AM 44.6 °F 43.1 °F 35.6 °F 71% 30.42 in 10.0 mi North 3.5 mph - N/A   Overcast
11:15 AM 44.6 °F 41.4 °F 35.6 °F 71% 30.43 in 10.0 mi North 5.8 mph - N/A   Overcast
11:35 AM 42.8 °F - 35.6 °F 76% 30.44 in 10.0 mi Calm Calm - N/A   Overcast
11:55 AM 44.6 °F - 33.8 °F 66% 30.43 in 10.0 mi Calm Calm - N/A   Partly Cloudy
12:15 PM 44.6 °F 40.2 °F 35.6 °F 71% 30.44 in 10.0 mi West 8.1 mph - N/A   Mostly Cloudy
12:35 PM 42.8 °F 41.1 °F 32.0 °F 66% 30.44 in 10.0 mi WNW 3.5 mph - N/A   Mostly Cloudy
12:55 PM 44.6 °F 42.2 °F 33.8 °F 66% 30.44 in 10.0 mi West 4.6 mph - N/A   Mostly Cloudy
1:15 PM 44.6 °F 42.2 °F 35.6 °F 71% 30.44 in 10.0 mi North 4.6 mph - N/A   Mostly Cloudy
1:35 PM 41.0 °F 37.1 °F 35.6 °F 81% 30.44 in 8.0 mi North 5.8 mph - 0.01 in   Overcast
1:55 PM 41.0 °F - 35.6 °F 81% 30.44 in 10.0 mi Calm Calm - 0.01 in   Scattered Clouds
2:15 PM 42.8 °F - 35.6 °F 76% 30.45 in 10.0 mi Calm Calm - N/A   Clear
2:35 PM 44.6 °F - 33.8 °F 66% 30.45 in 10.0 mi Calm Calm - N/A   Partly Cloudy
2:55 PM 44.6 °F - 35.6 °F 71% 30.46 in 10.0 mi Calm Calm - N/A   Scattered Clouds
3:15 PM 44.6 °F 39.7 °F 35.6 °F 71% 30.46 in 10.0 mi NW 9.2 mph 18.4 mph N/A   Mostly Cloudy
3:35 PM 42.8 °F 40.1 °F 35.6 °F 76% 30.47 in 10.0 mi West 4.6 mph - N/A   Mostly Cloudy
3:55 PM 42.8 °F 40.1 °F 35.6 °F 76% 30.47 in 10.0 mi West 4.6 mph - N/A   Mostly Cloudy
4:15 PM 42.8 °F 39.3 °F 35.6 °F 76% 30.48 in 10.0 mi NW 5.8 mph - N/A   Mostly Cloudy
4:35 PM 42.8 °F 41.1 °F 35.6 °F 76% 30.49 in 10.0 mi NW 3.5 mph - N/A   Clear
4:55 PM 42.8 °F 41.1 °F 33.8 °F 70% 30.49 in 10.0 mi NNW 3.5 mph - N/A   Clear
5:15 PM 41.0 °F 38.0 °F 35.6 °F 81% 30.50 in 10.0 mi NNE 4.6 mph - N/A   Scattered Clouds
5:35 PM 39.2 °F - 33.8 °F 81% 30.51 in 10.0 mi Calm Calm - N/A   Partly Cloudy
5:55 PM 37.4 °F - 35.6 °F 93% 30.51 in 10.0 mi Calm Calm - N/A   Clear
6:35 PM 35.6 °F - 33.8 °F 93% 30.52 in 10.0 mi Calm Calm - N/A   Clear
6:55 PM 35.6 °F - 33.8 °F 93% 30.53 in 10.0 mi Calm Calm - N/A   Clear
7:15 PM 35.6 °F - 32.0 °F 87% 30.54 in 10.0 mi Calm Calm - N/A   Clear
7:35 PM 33.8 °F - 32.0 °F 93% 30.54 in 10.0 mi Calm Calm - N/A   Scattered Clouds
7:55 PM 33.8 °F - 30.2 °F 87% 30.55 in 7.0 mi Calm Calm - N/A   Partly Cloudy
8:15 PM 33.8 °F - 32.0 °F 93% 30.56 in 9.0 mi Calm Calm - N/A   Clear
8:35 PM 33.8 °F - 30.2 °F 87% 30.57 in 9.0 mi Calm Calm - N/A   Clear
8:55 PM 30.2 °F - 28.4 °F 93% 30.57 in 4.0 mi Calm Calm - N/A   Clear
9:15 PM 32.0 °F - 30.2 °F 93% 30.58 in 2.5 mi Calm Calm - N/A   Clear
9:35 PM 32.0 °F - 30.2 °F 93% 30.58 in 10.0 mi Calm Calm - N/A   Partly Cloudy
9:55 PM 32.0 °F - 30.2 °F 93% 30.58 in 10.0 mi Calm Calm - N/A   Clear
10:35 PM 30.2 °F - 28.4 °F 93% 30.60 in 3.0 mi Calm Calm - N/A   Overcast
10:55 PM 30.2 °F - 28.4 °F 93% 30.60 in 0.2 mi Calm Calm - N/A   Overcast
11:15 PM 30.2 °F - 30.2 °F 100% 30.60 in 0.2 mi Calm Calm - N/A   Overcast
11:35 PM 30.2 °F - 28.4 °F 93% 30.61 in 0.2 mi Calm Calm - N/A   Overcast
11:55 PM 30.2 °F - 30.2 °F 100% 30.61 in 0.2 mi Calm Calm - N/A   Overcast